QPF
0.00 0.00 0.00 0.00 0.00 0.00 0.00 0.00 0.00 0.00 0.00 0.00 0.00 0.00 0.00 0.01 0.01 0.01 0.01 0.00 0.00 0.00 0.00 0.00 0.01 0.01 0.00 0.00 0.00 0.00 0.00 0.00 0.00 0.00 0.00 0.00 0.00 0.00 0.00 0.00 0.00 0.01 0.01 0.01
0.00 0.00 0.00 0.00 0.00 0.00 0.00 0.00 0.00 0.00 0.00 0.00 0.00 0.00 0.00 0.01 0.01 0.01 0.00 0.00 0.00 0.00 0.00 0.00 0.00 0.01 0.01 0.00 0.00 0.00 0.00 0.00 0.00 0.00 0.00 0.00 0.00 0.00 0.00 0.00 0.00 0.00 0.00 0.01
0.01 0.00 0.01 0.01 0.00 0.00 0.00 0.00 0.00 0.00 0.00 0.00 0.00 0.00 0.00 0.00 0.00 0.00 0.00 0.00 0.00 0.00 0.00 0.00 0.00 0.00 0.01 0.01 0.00 0.00 0.00 0.00 0.00 0.00 0.00 0.00 0.00 0.00 0.00 0.00 0.00 0.00 0.00 0.00
0.01 0.01 0.01 0.00 0.00 0.00 0.00 0.00 0.00 0.00 0.00 0.00 0.00 0.00 0.00 0.00 0.00 0.00 0.00 0.00 0.00 0.00 0.00 0.00 0.00 0.01 0.01 0.01 0.01 0.01 0.00 0.00 0.00 0.00 0.00 0.00 0.00 0.00 0.00 0.00 0.00 0.00 0.00 0.00
0.02 0.01 0.01 0.00 0.00 0.00 0.00 0.00 0.00 0.00 0.00 0.00 0.00 0.00 0.00 0.00 0.00 0.00 0.00 0.00 0.00 0.00 0.00 0.00 0.00 0.01 0.01 0.01 0.01 0.01 0.01 0.01 0.00 0.00 0.00 0.00 0.00 0.00 0.00 0.00 0.00 0.00 0.00 0.00
0.03 0.02 0.01 0.01 0.00 0.00 0.00 0.00 0.00 0.00 0.00 0.00 0.00 0.00 0.00 0.00 0.00 0.00 0.00 0.00 0.00 0.00 0.00 0.00 0.00 0.00 0.01 0.01 0.01 0.01 0.01 0.01 0.01 0.01 0.01 0.01 0.01 0.01 0.00 0.00 0.00 0.00 0.00 0.00
0.02 0.02 0.01 0.01 0.00 0.00 0.00 0.01 0.01 0.01 0.01 0.01 0.01 0.00 0.00 0.00 0.00 0.00 0.00 0.00 0.00 0.00 0.00 0.00 0.00 0.00 0.00 0.00 0.00 0.00 0.01 0.01 0.01 0.01 0.01 0.01 0.01 0.01 0.01 0.01 0.00 0.00 0.00 0.00
0.01 0.02 0.01 0.01 0.01 0.01 0.01 0.01 0.01 0.01 0.01 0.01 0.01 0.01 0.01 0.01 0.00 0.00 0.00 0.00 0.00 0.00 0.00 0.00 0.00 0.01 0.00 0.00 0.00 0.00 0.00 0.00 0.00 0.00 0.01 0.01 0.01 0.01 0.01 0.01 0.01 0.01 0.01 0.01
0.01 0.01 0.01 0.01 0.01 0.02 0.01 0.01 0.01 0.01 0.01 0.01 0.00 0.00 0.01 0.01 0.00 0.00 0.00 0.00 0.00 0.00 0.00 0.00 0.00 0.01 0.01 0.01 0.00 0.00 0.00 0.00 0.00 0.00 0.01 0.01 0.01 0.01 0.01 0.01 0.01 0.01 0.01 0.01
0.02 0.02 0.02 0.02 0.02 0.02 0.01 0.01 0.01 0.00 0.00 0.00 0.00 0.00 0.01 0.00 0.00 0.00 0.00 0.00 0.00 0.00 0.00 0.00 0.00 0.01 0.01 0.01 0.01 0.00 0.00 0.00 0.01 0.01 0.01 0.01 0.01 0.01 0.01 0.01 0.01 0.01 0.02 0.02
0.01 0.01 0.01 0.01 0.01 0.01 0.01 0.00 0.00 0.00 0.00 0.00 0.00 0.00 0.00 0.00 0.00 0.00 0.00 0.00 0.00 0.00 0.00 0.00 0.00 0.01 0.01 0.01 0.01 0.01 0.01 0.00 0.01 0.01 0.01 0.01 0.01 0.01 0.01 0.01 0.02 0.03 0.03 0.03
0.01 0.01 0.01 0.01 0.01 0.01 0.01 0.00 0.00 0.00 0.00 0.00 0.00 0.00 0.00 0.00 0.00 0.00 0.00 0.00 0.00 0.00 0.00 0.00 0.00 0.01 0.01 0.02 0.02 0.02 0.01 0.01 0.01 0.01 0.01 0.01 0.01 0.01 0.01 0.01 0.01 0.02 0.02 0.03
0.01 0.01 0.01 0.01 0.01 0.00 0.01 0.01 0.00 0.00 0.00 0.00 0.00 0.01 0.01 0.01 0.00 0.00 0.00 0.00 0.00 0.00 0.00 0.00 0.00 0.01 0.01 0.02 0.03 0.04 0.03 0.02 0.02 0.02 0.01 0.01 0.01 0.01 0.02 0.01 0.01 0.01 0.01 0.02
0.01 0.01 0.01 0.01 0.01 0.01 0.01 0.01 0.01 0.01 0.01 0.01 0.01 0.01 0.01 0.01 0.01 0.01 0.01 0.00 0.00 0.00 0.00 0.00 0.00 0.01 0.01 0.02 0.03 0.04 0.04 0.04 0.03 0.03 0.02 0.02 0.03 0.02 0.02 0.02 0.02 0.01 0.01 0.02
0.01 0.01 0.01 0.01 0.01 0.01 0.01 0.01 0.01 0.01 0.01 0.01 0.01 0.01 0.01 0.01 0.01 0.01 0.00 0.00 0.00 0.00 0.00 0.00 0.00 0.00 0.01 0.01 0.02 0.03 0.05 0.05 0.04 0.03 0.03 0.03 0.04 0.03 0.03 0.03 0.02 0.02 0.01 0.01
0.01 0.01 0.01 0.01 0.01 0.01 0.01 0.01 0.01 0.01 0.01 0.01 0.01 0.01 0.01 0.01 0.01 0.00 0.00 0.00 0.00 0.00 0.00 0.00 0.00 0.00 0.00 0.01 0.02 0.02 0.04 0.05 0.05 0.04 0.04 0.05 0.05 0.04 0.04 0.04 0.03 0.02 0.02 0.02
0.01 0.01 0.01 0.01 0.01 0.01 0.01 0.01 0.01 0.01 0.01 0.01 0.01 0.01 0.01 0.00 0.00 0.00 0.00 0.00 0.00 0.00 0.00 0.00 0.00 0.00 0.00 0.01 0.01 0.02 0.03 0.04 0.04 0.04 0.05 0.06 0.05 0.05 0.05 0.05 0.04 0.03 0.03 0.03
0.01 0.01 0.01 0.01 0.01 0.01 0.01 0.01 0.01 0.01 0.01 0.01 0.01 0.01 0.00 0.00 0.00 0.00 0.00 0.00 0.00 0.00 0.00 0.00 0.00 0.00 0.00 0.00 0.01 0.01 0.02 0.03 0.03 0.04 0.04 0.05 0.05 0.05 0.05 0.05 0.05 0.04 0.03 0.03
0.01 0.01 0.01 0.01 0.01 0.01 0.01 0.01 0.01 0.01 0.01 0.01 0.01 0.00 0.00 0.00 0.00 0.00 0.00 0.00 0.00 0.00 0.00 0.00 0.00 0.00 0.00 0.00 0.01 0.01 0.02 0.02 0.03 0.03 0.03 0.03 0.03 0.03 0.04 0.04 0.03 0.03 0.03 0.03
0.01 0.01 0.01 0.01 0.01 0.01 0.01 0.01 0.01 0.01 0.01 0.01 0.01 0.00 0.00 0.00 0.00 0.00 0.00 0.00 0.00 0.01 0.00 0.01 0.01 0.00 0.00 0.01 0.01 0.02 0.02 0.02 0.02 0.02 0.02 0.02 0.02 0.02 0.02 0.03 0.03 0.03 0.03 0.03
0.01 0.01 0.01 0.01 0.01 0.01 0.01 0.01 0.01 0.01 0.01 0.01 0.00 0.00 0.00 0.00 0.00 0.00 0.00 0.00 0.00 0.00 0.00 0.01 0.01 0.01 0.01 0.02 0.02 0.02 0.02 0.02 0.02 0.02 0.02 0.02 0.02 0.02 0.02 0.02 0.02 0.03 0.03 0.03
0.01 0.01 0.01 0.01 0.02 0.02 0.02 0.01 0.01 0.01 0.01 0.00 0.00 0.00 0.00 0.00 0.00 0.00 0.00 0.00 0.00 0.01 0.01 0.00 0.01 0.01 0.03 0.03 0.02 0.02 0.02 0.02 0.02 0.02 0.02 0.02 0.02 0.02 0.02 0.02 0.02 0.02 0.02 0.03
0.01 0.01 0.01 0.02 0.01 0.01 0.01 0.01 0.01 0.00 0.00 0.00 0.00 0.00 0.00 0.00 0.00 0.01 0.00 0.00 0.00 0.01 0.01 0.01 0.01 0.02 0.02 0.02 0.01 0.01 0.01 0.01 0.01 0.01 0.01 0.01 0.01 0.01 0.01 0.01 0.01 0.01 0.02 0.02
0.01 0.01 0.01 0.01 0.01 0.01 0.00 0.00 0.00 0.00 0.00 0.00 0.00 0.00 0.00 0.01 0.00 0.00 0.01 0.00 0.01 0.01 0.01 0.01 0.01 0.02 0.02 0.01 0.01 0.01 0.01 0.01 0.01 0.01 0.01 0.01 0.01 0.01 0.01 0.01 0.01 0.01 0.01 0.01
0.01 0.01 0.01 0.01 0.00 0.00 0.00 0.00 0.00 0.00 0.00 0.00 0.00 0.00 0.00 0.01 0.01 0.01 0.01 0.01 0.01 0.01 0.01 0.01 0.01 0.01 0.01 0.01 0.01 0.01 0.01 0.01 0.01 0.01 0.01 0.01 0.01 0.01 0.01 0.01 0.01 0.01 0.01 0.01
0.01 0.00 0.00 0.00 0.00 0.00 0.00 0.00 0.00 0.00 0.00 0.00 0.00 0.00 0.00 0.00 0.01 0.01 0.01 0.01 0.01 0.01 0.01 0.01 0.01 0.01 0.01 0.01 0.01 0.01 0.01 0.01 0.01 0.01 0.01 0.01 0.01 0.01 0.01 0.01 0.01 0.01 0.01 0.01
0.00 0.00 0.00 0.00 0.00 0.00 0.00 0.00 0.00 0.00 0.00 0.01 0.01 0.00 0.01 0.01 0.01 0.01 0.01 0.01 0.01 0.01 0.01 0.01 0.01 0.01 0.01 0.01 0.01 0.01 0.01 0.01 0.01 0.01 0.01 0.01 0.01 0.01 0.01 0.01 0.01 0.01 0.01 0.01
MSLP
1010.80 1010.91 1010.94 1010.84 1010.58 1010.15 1009.55 1008.83 1008.04 1007.25 1006.53 1005.95 1005.57 1005.41 1005.47 1005.74 1006.18 1006.74 1007.37 1008.04 1008.71 1009.36 1009.99 1010.61 1011.23 1011.86 1012.50 1013.15 1013.80 1014.42 1015.00 1015.53 1016.00 1016.41 1016.76 1017.09 1017.40 1017.71 1018.03 1018.35 1018.67 1018.97 1019.24 1019.45
1010.47 1010.38 1010.20 1009.91 1009.47 1008.89 1008.20 1007.42 1006.63 1005.89 1005.26 1004.80 1004.56 1004.56 1004.78 1005.21 1005.79 1006.49 1007.25 1008.03 1008.80 1009.53 1010.23 1010.89 1011.53 1012.15 1012.76 1013.36 1013.94 1014.49 1014.99 1015.44 1015.84 1016.18 1016.48 1016.75 1017.01 1017.27 1017.54 1017.82 1018.10 1018.36 1018.59 1018.78
1010.07 1009.77 1009.39 1008.91 1008.32 1007.62 1006.86 1006.07 1005.31 1004.66 1004.16 1003.86 1003.80 1003.98 1004.39 1004.99 1005.74 1006.59 1007.49 1008.38 1009.24 1010.04 1010.77 1011.45 1012.08 1012.67 1013.23 1013.75 1014.25 1014.72 1015.14 1015.51 1015.84 1016.12 1016.36 1016.58 1016.79 1016.99 1017.21 1017.44 1017.66 1017.88 1018.07 1018.23
1009.53 1009.06 1008.52 1007.89 1007.19 1006.43 1005.66 1004.91 1004.26 1003.73 1003.40 1003.30 1003.44 1003.83 1004.44 1005.22 1006.14 1007.13 1008.14 1009.12 1010.04 1010.88 1011.63 1012.30 1012.89 1013.42 1013.90 1014.34 1014.76 1015.13 1015.47 1015.77 1016.03 1016.26 1016.45 1016.62 1016.78 1016.94 1017.10 1017.27 1017.44 1017.60 1017.74 1017.84
1008.86 1008.26 1007.60 1006.91 1006.17 1005.43 1004.72 1004.09 1003.58 1003.25 1003.13 1003.24 1003.60 1004.20 1004.99 1005.95 1007.00 1008.10 1009.19 1010.23 1011.18 1012.02 1012.74 1013.37 1013.90 1014.35 1014.75 1015.11 1015.43 1015.73 1016.00 1016.24 1016.45 1016.63 1016.78 1016.92 1017.03 1017.14 1017.24 1017.34 1017.44 1017.52 1017.59 1017.63
1008.07 1007.40 1006.71 1006.01 1005.32 1004.67 1004.10 1003.65 1003.34 1003.24 1003.34 1003.69 1004.26 1005.04 1006.00 1007.08 1008.23 1009.40 1010.53 1011.58 1012.52 1013.34 1014.02 1014.59 1015.05 1015.42 1015.74 1016.01 1016.26 1016.49 1016.70 1016.89 1017.06 1017.21 1017.33 1017.43 1017.51 1017.56 1017.60 1017.63 1017.64 1017.64 1017.62 1017.58
1007.25 1006.57 1005.91 1005.28 1004.70 1004.21 1003.83 1003.59 1003.53 1003.66 1004.00 1004.55 1005.31 1006.24 1007.32 1008.48 1009.69 1010.88 1012.01 1013.05 1013.95 1014.72 1015.35 1015.85 1016.24 1016.54 1016.79 1017.00 1017.18 1017.35 1017.51 1017.67 1017.81 1017.93 1018.03 1018.10 1018.13 1018.13 1018.11 1018.06 1017.99 1017.89 1017.78 1017.64
1006.51 1005.86 1005.27 1004.76 1004.34 1004.04 1003.87 1003.87 1004.04 1004.40 1004.95 1005.68 1006.59 1007.63 1008.77 1009.97 1011.18 1012.36 1013.47 1014.46 1015.32 1016.04 1016.61 1017.06 1017.40 1017.65 1017.85 1018.00 1018.14 1018.27 1018.39 1018.51 1018.63 1018.72 1018.79 1018.82 1018.81 1018.76 1018.67 1018.55 1018.39 1018.21 1018.01 1017.78
1005.97 1005.38 1004.88 1004.50 1004.25 1004.14 1004.19 1004.40 1004.78 1005.33 1006.05 1006.92 1007.92 1009.02 1010.18 1011.38 1012.57 1013.71 1014.77 1015.72 1016.53 1017.21 1017.75 1018.16 1018.47 1018.69 1018.85 1018.97 1019.07 1019.17 1019.26 1019.34 1019.42 1019.48 1019.51 1019.50 1019.45 1019.34 1019.20 1019.01 1018.78 1018.53 1018.24 1017.94
1005.73 1005.20 1004.80 1004.54 1004.43 1004.49 1004.71 1005.10 1005.65 1006.34 1007.18 1008.12 1009.17 1010.29 1011.45 1012.61 1013.75 1014.85 1015.86 1016.76 1017.54 1018.20 1018.72 1019.13 1019.42 1019.63 1019.78 1019.87 1019.95 1020.00 1020.05 1020.09 1020.12 1020.14 1020.12 1020.06 1019.96 1019.81 1019.61 1019.37 1019.09 1018.78 1018.45 1018.09
1005.87 1005.40 1005.07 1004.90 1004.90 1005.07 1005.42 1005.93 1006.58 1007.37 1008.26 1009.25 1010.30 1011.40 1012.52 1013.64 1014.73 1015.78 1016.74 1017.62 1018.38 1019.02 1019.55 1019.96 1020.26 1020.47 1020.60 1020.68 1020.72 1020.74 1020.74 1020.73 1020.70 1020.65 1020.58 1020.47 1020.32 1020.13 1019.89 1019.61 1019.30 1018.95 1018.59 1018.21
1006.46 1006.02 1005.73 1005.60 1005.66 1005.90 1006.31 1006.88 1007.59 1008.41 1009.33 1010.31 1011.35 1012.41 1013.49 1014.55 1015.59 1016.58 1017.51 1018.35 1019.10 1019.75 1020.28 1020.69 1021.00 1021.21 1021.34 1021.39 1021.40 1021.37 1021.31 1021.23 1021.13 1021.02 1020.89 1020.73 1020.53 1020.30 1020.04 1019.74 1019.41 1019.05 1018.67 1018.28
1007.47 1007.05 1006.76 1006.65 1006.71 1006.97 1007.40 1007.98 1008.71 1009.53 1010.44 1011.41 1012.41 1013.43 1014.44 1015.45 1016.43 1017.37 1018.26 1019.07 1019.80 1020.44 1020.96 1021.38 1021.68 1021.88 1021.99 1022.01 1021.97 1021.89 1021.76 1021.62 1021.46 1021.28 1021.09 1020.88 1020.65 1020.39 1020.10 1019.79 1019.45 1019.09 1018.71 1018.32
1008.87 1008.45 1008.15 1008.01 1008.06 1008.30 1008.71 1009.29 1010.00 1010.81 1011.70 1012.63 1013.59 1014.56 1015.52 1016.47 1017.38 1018.26 1019.09 1019.85 1020.54 1021.14 1021.64 1022.03 1022.30 1022.48 1022.55 1022.53 1022.44 1022.30 1022.12 1021.91 1021.69 1021.46 1021.22 1020.97 1020.71 1020.43 1020.13 1019.81 1019.47 1019.10 1018.72 1018.33
1010.61 1010.16 1009.84 1009.67 1009.68 1009.89 1010.27 1010.83 1011.51 1012.30 1013.16 1014.06 1014.98 1015.89 1016.79 1017.66 1018.49 1019.29 1020.03 1020.72 1021.33 1021.86 1022.30 1022.63 1022.86 1022.98 1023.01 1022.94 1022.81 1022.62 1022.39 1022.14 1021.87 1021.60 1021.33 1021.05 1020.77 1020.47 1020.16 1019.83 1019.48 1019.11 1018.72 1018.31
1012.58 1012.12 1011.76 1011.55 1011.53 1011.70 1012.07 1012.59 1013.26 1014.02 1014.85 1015.72 1016.58 1017.43 1018.25 1019.03 1019.76 1020.44 1021.07 1021.64 1022.14 1022.56 1022.91 1023.15 1023.31 1023.36 1023.33 1023.22 1023.05 1022.82 1022.56 1022.28 1022.00 1021.71 1021.42 1021.13 1020.83 1020.53 1020.21 1019.86 1019.50 1019.11 1018.69 1018.26
1014.68 1014.21 1013.83 1013.59 1013.54 1013.69 1014.03 1014.54 1015.18 1015.92 1016.72 1017.54 1018.34 1019.11 1019.83 1020.49 1021.09 1021.63 1022.12 1022.54 1022.90 1023.19 1023.41 1023.55 1023.61 1023.60 1023.51 1023.36 1023.16 1022.91 1022.64 1022.36 1022.06 1021.77 1021.48 1021.19 1020.89 1020.58 1020.24 1019.88 1019.50 1019.08 1018.64 1018.17
1016.83 1016.34 1015.95 1015.70 1015.63 1015.77 1016.09 1016.58 1017.20 1017.91 1018.66 1019.42 1020.14 1020.81 1021.41 1021.93 1022.38 1022.75 1023.07 1023.32 1023.52 1023.66 1023.75 1023.78 1023.75 1023.67 1023.54 1023.35 1023.13 1022.88 1022.62 1022.34 1022.06 1021.78 1021.49 1021.20 1020.90 1020.58 1020.23 1019.86 1019.45 1019.00 1018.53 1018.04
1018.91 1018.42 1018.02 1017.77 1017.71 1017.83 1018.15 1018.62 1019.20 1019.86 1020.55 1021.22 1021.84 1022.38 1022.84 1023.20 1023.48 1023.69 1023.83 1023.91 1023.95 1023.95 1023.91 1023.84 1023.73 1023.59 1023.42 1023.21 1022.99 1022.75 1022.49 1022.23 1021.96 1021.69 1021.42 1021.13 1020.83 1020.50 1020.14 1019.75 1019.32 1018.86 1018.36 1017.85
1020.85 1020.37 1019.98 1019.74 1019.68 1019.81 1020.10 1020.54 1021.07 1021.66 1022.26 1022.82 1023.31 1023.71 1024.01 1024.21 1024.33 1024.36 1024.34 1024.27 1024.17 1024.04 1023.90 1023.74 1023.58 1023.39 1023.19 1022.98 1022.76 1022.52 1022.28 1022.03 1021.78 1021.51 1021.24 1020.95 1020.64 1020.30 1019.94 1019.53 1019.09 1018.62 1018.12 1017.60
1022.59 1022.13 1021.77 1021.55 1021.50 1021.62 1021.89 1022.28 1022.74 1023.23 1023.71 1024.14 1024.48 1024.73 1024.87 1024.91 1024.87 1024.76 1024.60 1024.41 1024.20 1023.98 1023.77 1023.56 1023.35 1023.14 1022.93 1022.71 1022.48 1022.25 1022.01 1021.76 1021.50 1021.23 1020.95 1020.66 1020.34 1019.99 1019.62 1019.22 1018.78 1018.31 1017.81 1017.30
1024.08 1023.66 1023.35 1023.16 1023.13 1023.24 1023.47 1023.78 1024.15 1024.53 1024.87 1025.14 1025.33 1025.42 1025.41 1025.31 1025.13 1024.91 1024.65 1024.37 1024.09 1023.82 1023.57 1023.33 1023.10 1022.87 1022.65 1022.42 1022.18 1021.94 1021.69 1021.42 1021.15 1020.87 1020.57 1020.26 1019.94 1019.59 1019.22 1018.81 1018.39 1017.93 1017.46 1016.96
1025.33 1024.98 1024.72 1024.58 1024.56 1024.65 1024.82 1025.06 1025.31 1025.55 1025.73 1025.85 1025.87 1025.81 1025.66 1025.44 1025.17 1024.86 1024.53 1024.21 1023.90 1023.61 1023.34 1023.09 1022.85 1022.62 1022.38 1022.14 1021.89 1021.62 1021.34 1021.05 1020.74 1020.44 1020.12 1019.80 1019.46 1019.11 1018.75 1018.36 1017.95 1017.52 1017.06 1016.58
1026.37 1026.09 1025.90 1025.80 1025.79 1025.86 1025.97 1026.10 1026.23 1026.31 1026.34 1026.29 1026.17 1025.96 1025.70 1025.38 1025.03 1024.67 1024.32 1023.98 1023.67 1023.38 1023.11 1022.86 1022.62 1022.38 1022.12 1021.85 1021.57 1021.27 1020.95 1020.62 1020.29 1019.95 1019.62 1019.28 1018.95 1018.60 1018.25 1017.89 1017.50 1017.08 1016.63 1016.15
1027.23 1027.04 1026.92 1026.86 1026.85 1026.88 1026.91 1026.94 1026.92 1026.86 1026.73 1026.53 1026.26 1025.93 1025.57 1025.18 1024.79 1024.40 1024.04 1023.70 1023.40 1023.12 1022.86 1022.62 1022.37 1022.11 1021.83 1021.53 1021.21 1020.86 1020.51 1020.14 1019.78 1019.42 1019.07 1018.74 1018.41 1018.08 1017.74 1017.39 1017.02 1016.62 1016.17 1015.67
1027.96 1027.86 1027.79 1027.76 1027.74 1027.71 1027.66 1027.56 1027.41 1027.20 1026.92 1026.58 1026.19 1025.76 1025.32 1024.88 1024.45 1024.06 1023.70 1023.38 1023.09 1022.82 1022.57 1022.31 1022.05 1021.76 1021.45 1021.11 1020.75 1020.37 1019.98 1019.59 1019.20 1018.83 1018.49 1018.16 1017.84 1017.53 1017.21 1016.87 1016.51 1016.10 1015.63 1015.11
1028.61 1028.57 1028.54 1028.50 1028.45 1028.35 1028.20 1027.98 1027.70 1027.34 1026.93 1026.46 1025.97 1025.46 1024.96 1024.49 1024.05 1023.65 1023.30 1022.98 1022.70 1022.43 1022.18 1021.91 1021.62 1021.30 1020.95 1020.57 1020.17 1019.76 1019.34 1018.94 1018.54 1018.18 1017.84 1017.52 1017.22 1016.93 1016.62 1016.29 1015.92 1015.49 1014.99 1014.41
Thickness
5463 5459 5456 5457 5453 5443 5442 5455 5459 5468 5456 5455 5445 5436 5428 5421 5413 5406 5400 5394 5389 5383 5377 5371 5366 5360 5356 5351 5346 5342 5339 5336 5333 5330 5328 5326 5324 5322 5321 5321 5320 5320 5320 5320
5443 5443 5440 5441 5446 5442 5437 5439 5442 5443 5440 5436 5427 5419 5413 5408 5401 5395 5390 5384 5378 5372 5366 5360 5355 5350 5345 5340 5335 5331 5328 5325 5322 5319 5317 5314 5312 5311 5309 5309 5308 5307 5308 5308
5448 5433 5431 5447 5445 5436 5430 5426 5428 5433 5433 5423 5412 5405 5400 5395 5389 5384 5379 5372 5366 5361 5355 5349 5344 5339 5334 5329 5323 5319 5316 5313 5310 5307 5305 5303 5301 5299 5298 5297 5296 5296 5296 5296
5431 5424 5433 5452 5423 5424 5420 5413 5410 5411 5410 5403 5398 5390 5383 5379 5376 5371 5365 5359 5353 5348 5342 5337 5331 5326 5321 5317 5312 5308 5305 5302 5299 5295 5293 5291 5289 5288 5287 5285 5284 5284 5284 5284
5420 5429 5441 5433 5412 5406 5405 5406 5401 5397 5394 5388 5379 5376 5376 5368 5362 5357 5351 5345 5340 5334 5328 5323 5318 5313 5309 5305 5301 5297 5294 5290 5287 5283 5281 5279 5278 5276 5275 5274 5273 5273 5272 5272
5407 5419 5432 5433 5401 5392 5396 5402 5394 5385 5381 5376 5370 5379 5376 5355 5348 5342 5336 5331 5325 5320 5315 5310 5305 5301 5296 5293 5289 5285 5281 5277 5274 5271 5269 5267 5266 5264 5263 5262 5262 5261 5261 5261
5401 5407 5419 5402 5383 5382 5398 5405 5381 5374 5369 5363 5361 5361 5349 5339 5333 5328 5323 5317 5312 5307 5302 5297 5293 5288 5284 5280 5276 5272 5268 5265 5262 5260 5257 5255 5254 5252 5251 5250 5250 5250 5251 5251
5390 5393 5405 5378 5373 5382 5387 5372 5365 5360 5355 5350 5344 5336 5330 5325 5319 5315 5310 5305 5300 5295 5290 5285 5280 5275 5271 5267 5263 5259 5255 5253 5251 5248 5246 5244 5242 5241 5239 5239 5239 5240 5240 5242
5389 5394 5380 5367 5368 5363 5359 5357 5353 5348 5341 5335 5328 5323 5318 5312 5306 5301 5297 5292 5287 5282 5278 5272 5267 5262 5258 5255 5250 5247 5244 5241 5239 5237 5235 5233 5231 5230 5228 5228 5228 5229 5229 5231
5367 5371 5364 5356 5352 5347 5344 5341 5338 5332 5326 5321 5316 5310 5305 5299 5293 5288 5283 5279 5274 5269 5265 5261 5255 5250 5246 5242 5238 5235 5233 5231 5228 5226 5225 5222 5220 5218 5217 5216 5216 5216 5218 5220
5357 5357 5350 5348 5342 5337 5332 5327 5322 5317 5313 5308 5302 5297 5291 5286 5280 5275 5270 5265 5260 5256 5252 5248 5243 5239 5235 5231 5227 5224 5222 5220 5218 5216 5214 5211 5209 5207 5205 5204 5203 5204 5205 5207
5363 5354 5347 5342 5330 5324 5320 5315 5310 5304 5299 5294 5288 5283 5277 5271 5266 5261 5256 5251 5247 5243 5239 5235 5231 5227 5224 5219 5215 5212 5211 5209 5207 5205 5202 5201 5199 5198 5195 5193 5193 5192 5193 5195
5337 5330 5326 5321 5315 5310 5306 5301 5295 5290 5285 5280 5274 5268 5263 5257 5252 5247 5243 5238 5234 5229 5226 5222 5219 5216 5212 5209 5204 5201 5199 5197 5195 5193 5191 5189 5188 5187 5187 5186 5184 5183 5184 5185
5318 5315 5312 5308 5302 5296 5291 5286 5280 5275 5270 5265 5260 5254 5249 5244 5239 5234 5230 5226 5221 5217 5213 5210 5207 5205 5202 5198 5194 5191 5188 5186 5184 5182 5180 5178 5176 5175 5175 5175 5176 5176 5175 5175
5306 5304 5301 5293 5287 5282 5277 5272 5268 5263 5257 5252 5247 5242 5236 5231 5227 5222 5217 5213 5209 5206 5203 5199 5196 5194 5191 5188 5184 5181 5179 5177 5174 5172 5170 5168 5167 5166 5165 5164 5165 5166 5167 5167
5294 5290 5286 5281 5276 5271 5265 5261 5256 5252 5246 5240 5235 5229 5224 5219 5214 5210 5206 5202 5198 5196 5192 5189 5186 5184 5181 5178 5175 5173 5170 5167 5165 5163 5161 5160 5159 5157 5156 5156 5156 5156 5157 5157
5285 5281 5276 5270 5265 5260 5254 5249 5245 5239 5234 5228 5223 5217 5212 5208 5204 5200 5196 5191 5187 5184 5182 5179 5177 5174 5171 5169 5166 5164 5162 5159 5156 5155 5153 5151 5149 5148 5148 5147 5147 5147 5147 5147
5274 5271 5267 5261 5255 5248 5242 5237 5232 5227 5222 5217 5211 5206 5201 5197 5194 5191 5186 5182 5178 5176 5174 5171 5168 5166 5163 5161 5158 5156 5153 5151 5149 5146 5144 5143 5141 5140 5139 5138 5138 5138 5138 5138
5260 5256 5252 5247 5241 5235 5230 5225 5220 5215 5210 5205 5200 5196 5191 5187 5184 5180 5176 5173 5170 5169 5167 5163 5161 5159 5156 5153 5150 5148 5145 5143 5141 5139 5136 5135 5134 5132 5130 5129 5129 5129 5129 5130
5246 5242 5237 5232 5227 5222 5217 5212 5208 5203 5199 5194 5189 5186 5182 5179 5175 5171 5168 5166 5164 5161 5158 5155 5153 5151 5148 5145 5142 5140 5138 5135 5133 5131 5129 5127 5126 5124 5122 5121 5120 5120 5120 5121
5233 5229 5225 5220 5215 5211 5206 5202 5197 5193 5188 5184 5180 5177 5174 5170 5167 5163 5161 5161 5158 5153 5151 5148 5146 5143 5141 5139 5136 5133 5130 5128 5125 5123 5121 5120 5118 5117 5115 5114 5113 5113 5113 5113
5221 5217 5212 5208 5203 5200 5195 5191 5187 5183 5179 5175 5172 5169 5165 5163 5160 5157 5154 5152 5150 5146 5144 5141 5138 5136 5134 5132 5129 5126 5123 5120 5118 5116 5113 5112 5110 5109 5108 5107 5106 5106 5106 5106
5209 5205 5200 5196 5192 5188 5184 5181 5177 5174 5170 5167 5164 5161 5158 5155 5153 5150 5149 5146 5142 5139 5137 5133 5131 5129 5128 5124 5121 5118 5115 5113 5110 5108 5106 5104 5103 5102 5101 5100 5099 5099 5099 5100
5197 5193 5189 5185 5181 5178 5175 5172 5168 5165 5162 5160 5157 5154 5151 5148 5147 5143 5140 5137 5134 5132 5129 5126 5124 5122 5120 5116 5113 5110 5108 5106 5104 5102 5100 5098 5097 5095 5094 5094 5093 5093 5094 5095
5186 5182 5178 5175 5172 5170 5167 5163 5160 5157 5155 5153 5151 5148 5144 5141 5138 5136 5132 5129 5127 5125 5123 5120 5117 5115 5112 5109 5106 5104 5102 5100 5098 5096 5095 5093 5091 5090 5089 5089 5088 5089 5090 5092
5176 5173 5170 5166 5163 5160 5158 5155 5152 5150 5147 5145 5143 5141 5137 5134 5131 5128 5126 5123 5120 5118 5116 5113 5110 5108 5105 5103 5100 5098 5096 5094 5092 5090 5089 5087 5086 5085 5085 5085 5085 5086 5087 5089
5165 5162 5160 5157 5154 5151 5148 5146 5144 5141 5139 5137 5135 5133 5130 5127 5125 5122 5119 5116 5114 5111 5109 5106 5104 5102 5099 5097 5095 5093 5091 5090 5088 5086 5085 5084 5083 5082 5082 5082 5083 5084 5086 5088